Regional Weather Roundup
Issued by NWS

Home | Current Version | Previous Version | Text Only | Print | Product List | Glossary On
Versions: 1 2 3 4 5 6 7 8 9 10 11 12 13 14 15 16 17 18 19 20 21 22 23 24 25 26 27 28 29 30 31 32 33 34 35 36 37 38 39 40 41 42 43 44 45 46 47 48 49 50
000
ASUS45 KTFX 172010
RWRMT
MONTANA REGIONAL WEATHER ROUNDUP
NATIONAL WEATHER SERVICE GREAT FALLS MT
100 PM MST TUE JAN 17 2017

NOTE: "FAIR" INDICATES FEW OR NO CLOUDS BELOW 12000 FEET WITH NO
SIGNIFICANT WEATHER AND/OR OBSTRUCTIONS TO VISIBILITY.

MTZ001>007-043-172100-
WEST OF THE DIVIDE

CITY           SKY/WX    TMP DP  RH WIND       PRES   REMARKS
KALISPELL      CLOUDY    18  13  80 CALM      30.00F
MISSOULA       CLOUDY    12   7  80 CALM      30.09F
BUTTE          CLOUDY    19  11  70 S3        30.00F
MULLAN PASS    CLOUDY    31  20  63 S8G17     29.91F WCI  23
ANACONDA         N/A     36  12  38 SE15G21   29.96F WCI  26
DEER LODGE       N/A     18   7  62 NE3       30.01F
EUREKA           N/A     28  19  69 N5        29.95S
HAMILTON         N/A     12   5  73 N5        30.06S
PLAINS           N/A     17   7  65 MISG      30.04F
RONAN            N/A     11   6  80 N5        30.02F
THOMPSON FALLS   N/A     19  12  74 E5        30.04
$$

MTZ008-052>055-172100-
SOUTHWEST MONTANA

CITY           SKY/WX    TMP DP  RH WIND       PRES   REMARKS
BOZEMAN        CLOUDY    22  13  68 S5        30.03F
DILLON         CLOUDY    32  10  40 S16       30.03F WCI  21
W YELLOWSTONE  CLOUDY    12   7  79 CALM      30.17F
ENNIS          SUNNY     30  16  55 S25G35    30.05F WCI  16
TWIN BRIDGES     N/A     24  10  55 E7        30.03F WCI  16
$$

MTZ009-010-012-014-046-048-049-054-172100-
EAST SLOPES AND CENTRAL MONTANA

CITY           SKY/WX    TMP DP  RH WIND       PRES   REMARKS
CUT BANK       CLOUDY    43  25  49 W38G47    29.71F
GREAT FALLS    CLOUDY    41  22  46 MISG      29.81F
MALMSTROM AFB  CLOUDY    41  28  60 S16       29.81F
HELENA         CLOUDY    12   3  67 CALM      30.02F
AUGUSTA          N/A     40  27  59 SE14      29.81F
BOWMANS CRNR     N/A     32  18  56 S30       29.82F WCI  17
CHOTEAU          N/A     45  30  57 S12G18    29.78F
CONRAD           N/A     43  34  70 SE5       29.81F
FAIRFIELD        N/A     36  23  58 SW23      29.79F WCI  25
POWER            N/A     39  24  55 SW18      29.79F WCI  29
RAYNESFORD       N/A     53  29  39 SW9       29.83F
ULM              N/A     42  24  49 MISG      29.83F
$$

MTZ011-013-016-021-045-047-050-051-172100-
NORTH CENTRAL MONTANA

CITY           SKY/WX    TMP DP  RH WIND       PRES   REMARKS
HAVRE          CLOUDY    40  27  59 SW30      29.74F
LEWISTOWN      CLOUDY    42  27  55 SW15      29.82F
N BAR RANCH      N/A     50  27  40 W7        29.82F
CHINOOK          N/A     46  27  46 SW30G37   29.67F
DENTON           N/A     42  30  61 S14G29    29.77S
FORT BENTON      N/A     46  27  46 MISG      29.79S
GEYSER           N/A     49  28  45 W28G35    29.77F
GRASS RANGE      N/A     48  25  41 W15       29.76F
JUDITH GAP       N/A     42  27  53 S8G18     29.83F
ROY              N/A     48  31  51 MISG      29.72F
STANFORD         N/A     48  29  49 W18       29.80F
WINIFRED         N/A     45  28  52 W13       29.78F
$$

MTZ017>020-022>027-061-062-172100-
NORTHEAST MONTANA

CITY           SKY/WX    TMP DP  RH WIND       PRES   REMARKS
GLASGOW        CLOUDY    30  21  69 SE6       29.70F WCI  24
JORDAN           N/A     41  28  60 W10       29.75F
SIDNEY         CLOUDY    26  18  71 S16       29.75F WCI  14
WOLF POINT     CLOUDY    26  14  60 CALM      29.73F
PLENTYWOOD       N/A     28  19  69 CALM      29.65F
POPLAR           N/A     27  18  69 SW3       29.73F
SCOBEY           N/A     37  20  50 S2        29.66F
$$

MTZ028>42-056>058-172100-
SOUTHCENTRAL AND SOUTHEAST MONTANA

CITY           SKY/WX    TMP DP  RH WIND       PRES   REMARKS
BAKER          CLOUDY    32  19  58 SW16      29.80F WCI  21
BILLINGS       CLOUDY    34  16  47 SW26G35   29.86F WCI  21
LIVINGSTON     CLOUDY    41  17  38 SW35G45   29.92F
MILES CITY     CLOUDY    25  14  63 S9        29.83F WCI  15
BIG TIMBER     SUNNY     43  19  39 W29G36    29.90F
EKALAKA          N/A     37  12  36 S12       29.81F WCI  29
FORSYTH          N/A     39  18  41 W9        29.83S
HARLOWTON        N/A     43  21  41 W28G39    29.85F
LAUREL           N/A     36  16  44 S25       29.87F WCI  24
$$

REGIONAL REPORTS...DAKOTAS

CITY           SKY/WX    TMP DP  RH WIND       PRES   REMARKS
WILLISTON      CLOUDY    27  16  63 SW13      29.71F WCI  16
MINOT          CLOUDY    29  17  61 S20G30    29.67F WCI  16
DICKINSON      CLOUDY    29  19  66 W20       29.74F WCI  16
BEACH            N/A     32  18  55 SW18      29.80S WCI  20
CROSBY           N/A     27  21  80 SW21G26   29.64S WCI  13
TIOGA            N/A     25  21  86 SW16      29.69R WCI  12
WATFORD CITY     N/A     28  19  69 SW21G26   29.73F WCI  15
BISMARCK       CLOUDY    22  14  71 E3        29.83F
GRAND FORKS    CLOUDY    21  14  74 S15       29.83F WCI   8
FARGO          CLOUDY    22  16  78 S9        29.91F WCI  12
BUFFALO SD       N/A     34  21  59 W16       29.76F WCI  24
RAPID CITY     SUNNY     31  20  63 CALM      29.88F
$$

REGIONAL REPORTS...WYOMING/IDAHO/WASHINGTON

CITY           SKY/WX    TMP DP  RH WIND       PRES   REMARKS
GILLETTE       CLOUDY    40  20  44 SW21      29.89F
SHERIDAN       CLOUDY    30  12  47 VRB5      29.87F
BUFFALO WY     CLOUDY    39  17  41 S5        29.89F
CODY           CLOUDY    27  11  51 CALM      29.97F
YELLOWSTONE LA   N/A     11   4  73 CALM      30.15F
IDAHO FALLS    CLOUDY     7   3  84 N8        30.27F WCI  -6
SALMON         CLOUDY    -6  -9  84 CALM      30.33F
BOISE          SUNNY     12   4  70 W5        30.32F
SPOKANE        PTSUNNY   23  19  85 E7        29.99F WCI  15
$$

REGIONAL REPORTS...ALBERTA

CITY           SKY/WX    TMP DP  RH WIND       PRES   REMARKS
EDMONTON       PTSUNNY   41  27  56 CALM      29.35R
CALGARY        MOSUNNY   46  30  53 S10       29.48F
LETHBRIDGE     PTSUNNY   43  30  61 SW35G41   29.62F
MEDICINE HAT   PTSUNNY   43  30  61 SW35      29.51F
WATERTON GATE    N/A     45  23  42 SW6         N/A
MILK RIVER       N/A     45  28  53 SW20G32     N/A
ONEFOUR          N/A     45  27  49 W26G33      N/A
$$

REGIONAL REPORTS...SASKATCHEWAN

CITY           SKY/WX    TMP DP  RH WIND       PRES   REMARKS
SWIFT CURRENT  SUNNY     43  34  70 SW15G25   29.54R
REGINA         PTSUNNY   37  30  75 W18       29.51F WCI  27
SASKATOON      PTSUNNY   36  30  80 SW9       29.44F WCI  29
VAL MARIE        N/A     39  28  65 W22         N/A  WCI  29
ROCKGLEN         N/A     37  27  65 W31G38      N/A  WCI  25
$$



USA.gov is the U.S. government's official web portal to all federal, state and local government web resources and services.